Retour au catalogue

STARLINK-5896

ActifCommunicationsVLEO
NORAD 55930·PAYLOAD·🇺🇸 United States

Lancé Mar 17, 2023 depuis Vandenberg Space Force Base

Loading…

Prochains Passages (prochaines 24 heures)

TLE

FraisSource: CelesTrak SupGP

Époque: Sep 14, 2026, 20:43 UTC

1 55930C 23037S   26257.86368056 -.00042586  00000+0 -35674-2 0  2571
2 55930  70.0017 167.4287 0003002 266.4626 251.4779 14.98367610    12

Suivez STARLINK-5896 en temps réel avec AllMySat

Download on the App Store